Theta_e
359 359 361 362 363 364 363 363 366 367 367 363 363 361 359 357 358 356 358 358 356 356 355 354 358 358 355 355 355 357 358 359 360 358 361 361 362 363 379 377 376 375 374 375 375 375 375 375 375 374 374 374 373 373 372 372 371 370 369 368 368 368 368 367 365 364 364 363 363 363 363 363 363 361 362 362 361 361 361 360 360 360 360 361 361
358 359 359 362 363 364 364 362 364 364 361 360 358 356 355 354 353 355 352 354 355 355 352 352 349 350 352 352 351 353 358 355 357 355 359 361 363 364 377 380 377 376 376 375 375 375 376 375 375 375 375 375 375 374 373 372 372 371 371 370 369 369 368 368 367 365 364 364 363 363 363 363 363 361 362 362 361 361 362 361 361 361 361 360 360
358 360 360 360 362 364 363 364 360 358 360 357 358 357 354 351 349 348 352 352 350 350 349 350 351 348 352 350 351 353 352 355 352 352 352 357 360 361 357 380 378 377 376 376 376 376 376 376 376 376 376 375 375 375 375 374 373 372 371 371 370 369 369 369 368 367 366 365 364 364 364 363 363 363 362 362 362 362 362 362 362 361 362 361 361
359 360 358 359 359 358 359 360 357 356 359 356 355 357 356 353 350 351 352 353 351 348 350 345 348 348 352 349 351 351 351 353 351 352 352 356 357 359 361 361 382 379 377 376 377 376 377 376 376 376 376 376 376 376 375 375 374 373 372 372 372 371 370 370 369 368 367 366 366 365 364 364 364 363 363 363 363 363 362 362 362 362 362 361 361
357 361 361 358 357 357 357 359 358 358 356 355 354 360 356 351 351 350 351 352 347 347 345 346 346 348 350 349 351 350 352 353 355 354 352 354 355 355 361 360 360 383 378 378 377 377 377 377 376 376 376 376 376 376 376 376 375 374 373 372 372 372 371 371 370 369 368 367 367 366 366 365 364 364 364 364 363 363 363 362 363 363 362 363 363
360 360 360 356 357 358 355 354 355 356 358 357 352 352 350 350 346 346 346 346 343 344 342 343 344 348 349 350 351 354 353 351 353 353 353 353 355 358 357 356 357 363 368 379 377 377 377 377 377 377 377 376 376 376 376 376 376 375 374 373 372 372 371 370 370 369 369 368 367 367 367 367 366 365 364 364 364 363 363 364 363 362 362 363 362
364 359 359 359 355 352 353 351 353 357 351 352 351 352 352 349 344 343 342 340 340 343 341 343 343 344 347 351 350 350 353 352 353 353 353 356 355 354 357 355 355 358 357 361 380 376 376 375 376 378 378 377 377 377 376 376 376 376 375 374 373 372 372 371 370 369 369 369 368 367 367 367 367 366 365 365 365 365 364 364 364 363 364 363 364
369 369 360 358 354 352 351 354 356 356 350 352 358 355 351 346 348 346 340 339 344 343 344 342 344 343 345 348 351 354 354 354 353 353 354 355 354 355 356 356 355 358 360 356 356 369 377 374 374 375 377 377 378 377 377 377 377 376 376 375 374 373 372 371 370 369 369 369 369 368 368 368 367 367 366 365 365 365 365 365 364 364 364 364 364
373 371 366 359 354 355 351 352 355 355 353 352 352 352 352 347 351 352 350 344 344 344 345 346 343 344 346 349 351 355 353 355 353 354 353 355 356 354 354 356 359 355 356 356 356 361 378 375 373 374 375 375 376 376 377 377 377 376 376 375 374 374 373 372 371 370 370 370 369 369 369 369 368 367 367 366 366 366 366 365 365 364 364 364 363
371 370 367 360 359 357 357 357 357 356 356 356 355 355 354 352 349 351 350 350 347 346 345 345 344 344 346 346 350 351 352 353 355 357 354 356 358 356 356 355 355 354 356 357 356 357 356 376 374 373 373 373 374 375 376 376 377 376 376 376 375 374 374 373 372 371 370 370 370 370 369 369 368 367 368 367 367 367 366 366 365 365 365 365 365
369 372 368 361 358 358 360 360 362 358 358 358 357 357 356 352 349 350 353 354 353 352 349 346 344 343 344 347 351 352 355 352 356 355 353 354 354 354 354 359 356 355 359 360 357 358 357 358 369 370 372 372 373 374 375 375 376 376 377 376 376 375 375 374 373 372 371 371 370 370 370 370 369 368 368 367 367 367 367 367 366 366 366 365 365
371 371 371 365 358 357 358 359 360 359 357 356 354 353 355 356 354 348 350 352 357 359 356 353 352 351 351 352 353 354 353 355 354 353 357 356 357 358 356 357 359 360 357 358 359 356 359 362 366 366 365 367 375 374 375 375 375 375 376 377 376 376 376 375 374 373 372 372 371 371 370 370 370 369 369 369 368 368 368 367 367 367 366 366 366
368 368 369 368 364 360 361 361 360 359 357 356 356 355 356 356 353 358 350 350 351 356 356 357 353 349 352 353 355 358 357 357 354 352 353 355 355 356 358 358 359 358 362 359 359 359 357 361 363 367 366 362 377 378 377 376 376 376 375 376 376 375 375 375 375 374 373 373 372 371 370 370 370 370 369 369 369 368 368 368 368 367 367 366 366
369 371 370 365 363 360 360 359 360 360 360 362 361 364 363 358 354 351 354 351 351 354 354 355 348 347 345 348 350 353 358 355 352 351 353 355 356 356 360 356 355 357 359 363 362 359 358 360 366 362 365 367 368 369 378 379 378 377 376 375 376 377 376 375 375 374 373 372 372 371 370 370 370 370 370 369 369 368 368 369 368 368 367 367 367
366 369 367 364 362 360 359 357 359 361 360 361 361 364 363 357 358 351 347 351 353 357 359 358 348 349 351 348 345 344 350 352 354 352 352 353 351 351 356 356 355 357 359 361 362 365 359 361 361 364 367 370 365 362 365 369 373 377 377 375 374 375 377 377 376 375 374 373 372 372 371 370 370 369 369 369 369 368 368 368 369 368 368 367 367
360 361 361 361 363 364 360 357 358 362 359 356 357 354 355 359 355 354 355 349 349 351 359 361 357 350 346 346 346 343 338 345 350 353 352 350 350 350 353 353 354 355 358 357 356 360 363 361 360 363 367 368 370 366 363 363 366 373 377 376 375 373 374 376 376 376 375 375 373 372 372 371 369 369 369 369 369 368 368 368 368 368 368 367 367
359 360 360 361 365 367 364 359 356 357 357 355 356 354 355 358 359 357 356 352 349 353 357 359 357 359 350 345 345 341 341 340 340 340 349 349 352 352 352 352 350 350 349 351 355 358 356 357 361 361 362 362 364 364 362 367 365 369 372 377 375 374 372 374 376 376 376 375 374 373 372 371 370 369 369 368 368 367 367 367 367 367 367 367 367
361 359 359 359 363 367 370 364 356 355 356 355 355 355 357 356 357 358 355 358 356 354 352 357 358 358 358 355 353 342 338 340 337 333 344 343 344 347 348 348 349 349 349 348 349 351 354 354 359 359 359 360 360 359 359 362 367 366 370 371 376 375 373 373 375 376 376 375 374 373 372 372 371 370 369 368 367 367 367 367 367 367 367 366 365
361 363 362 365 366 366 370 368 359 356 357 357 356 355 355 356 358 357 357 358 359 356 354 351 354 357 358 356 354 352 347 342 335 336 333 338 342 340 341 344 345 345 346 348 350 349 349 349 347 349 351 359 360 356 360 357 358 364 366 367 371 374 372 372 374 375 376 375 374 373 373 372 371 371 369 368 367 367 366 366 366 366 366 365 365
360 363 364 366 368 366 368 367 360 358 356 356 355 357 357 357 360 360 360 361 361 357 355 356 353 355 357 352 348 347 346 346 346 341 337 335 336 341 343 343 345 345 345 345 347 348 347 347 346 346 348 350 355 357 359 357 358 359 361 369 368 370 372 372 373 375 375 376 374 373 372 372 371 370 369 368 367 367 366 366 366 366 366 366 366
366 368 367 365 367 366 366 367 364 360 359 356 357 357 359 359 360 359 361 360 359 359 358 356 354 354 351 350 347 344 343 343 344 344 341 336 335 335 337 341 341 341 343 347 347 348 347 347 345 347 349 350 352 352 353 356 354 360 362 365 370 370 370 371 371 374 374 375 374 373 373 372 371 370 369 368 367 367 366 366 366 366 366 366 366
364 371 370 367 363 366 363 361 363 361 359 358 358 359 358 359 358 358 361 362 363 360 358 358 357 355 346 347 346 345 343 340 340 338 339 341 335 333 335 335 334 337 341 340 342 345 348 347 347 345 345 350 352 351 355 358 358 355 357 368 368 370 371 371 371 372 373 373 373 373 373 372 371 370 370 369 368 367 367 366 366 366 366 366 366
358 364 365 365 365 363 360 358 359 361 360 360 359 357 355 356 356 358 359 360 358 361 359 359 358 355 349 347 344 342 339 337 338 335 335 334 333 332 333 334 333 333 337 340 342 343 345 346 346 345 347 347 350 351 355 356 360 358 368 364 365 365 366 368 370 371 372 373 372 372 372 372 371 371 370 369 368 367 367 367 366 366 365 365 366
359 359 362 360 361 362 364 360 358 358 357 360 360 358 357 355 353 354 355 359 360 359 360 356 354 352 350 347 345 344 342 339 338 337 336 335 335 334 332 333 333 334 335 339 342 342 343 344 344 344 346 345 349 353 352 353 354 363 360 362 367 367 367 368 370 370 371 373 373 373 372 372 371 370 370 370 369 368 367 367 366 366 365 365 365
354 351 356 362 360 362 363 360 359 360 364 364 362 363 360 355 354 353 354 357 357 361 358 357 354 350 346 348 346 344 342 341 339 337 337 337 335 333 335 335 331 332 336 336 335 341 343 343 343 342 343 346 345 350 348 350 351 362 373 358 364 367 367 367 368 369 370 372 373 373 373 372 370 370 370 370 369 369 368 367 367 366 366 365 366
354 355 352 352 355 358 363 364 365 365 367 370 367 366 365 360 356 354 354 356 360 362 361 358 355 349 348 346 345 344 343 343 342 339 338 337 334 333 334 334 335 333 335 336 338 334 339 342 343 344 343 343 347 346 348 348 349 360 371 360 355 360 364 365 367 369 369 370 372 374 374 373 372 371 371 371 370 370 369 368 368 367 366 365 366
350 355 358 355 353 355 358 362 361 366 370 370 365 366 368 368 364 362 362 360 362 361 359 358 351 347 348 349 347 346 345 345 344 343 341 338 337 335 334 331 330 332 333 335 336 336 335 338 340 341 343 346 347 345 346 347 352 358 360 354 354 361 362 365 365 366 368 368 369 372 374 375 374 373 372 372 372 371 370 370 370 370 369 367 366
354 357 357 361 357 354 356 360 363 361 365 370 369 364 365 366 367 365 363 361 361 362 360 356 351 350 350 350 349 347 347 344 344 343 343 343 341 339 338 336 331 329 332 332 334 335 338 337 341 342 343 345 346 346 350 347 345 358 372 353 352 357 359 362 362 363 364 366 367 368 370 373 375 375 374 373 373 372 372 372 371 371 371 369 368
357 357 359 364 363 358 356 355 358 362 366 367 366 367 367 366 367 369 365 361 361 359 358 355 353 349 349 349 347 347 349 350 343 340 343 346 343 342 340 336 336 333 332 332 334 334 337 338 336 343 344 345 347 344 343 344 349 351 348 352 352 355 353 358 360 360 360 361 364 365 366 368 371 374 376 375 374 374 373 372 372 372 371 371 370
358 355 356 357 361 367 363 360 360 359 361 361 362 363 365 364 366 366 364 364 360 358 356 353 351 351 351 350 350 348 349 350 347 343 342 342 343 343 343 343 342 338 337 334 336 339 336 339 339 339 346 345 344 342 341 341 351 344 345 347 349 350 350 355 358 357 356 355 356 357 360 361 364 366 370 373 374 373 373 373 372 372 372 371 371
359 362 361 357 358 361 367 364 362 362 360 359 361 362 363 364 365 364 363 365 364 361 358 356 353 355 353 349 349 348 348 347 347 346 347 345 344 344 345 346 345 345 342 340 335 340 341 337 339 341 342 343 343 344 343 343 346 346 346 349 349 352 356 364 360 359 356 354 353 355 358 363 364 365 367 369 371 373 372 372 372 372 371 371 371
359 360 362 361 359 358 359 361 358 355 354 356 358 357 362 365 365 363 360 362 362 361 361 356 354 352 352 349 349 350 351 349 347 348 344 344 345 344 345 346 346 346 347 345 341 340 343 340 341 344 343 343 344 343 346 346 345 355 351 350 351 356 356 355 356 358 358 354 352 351 352 356 361 364 365 367 369 371 372 372 371 371 371 371 371
362 361 361 364 364 362 360 359 357 358 360 362 360 363 363 364 367 368 361 359 359 360 363 360 354 350 353 351 355 353 353 351 346 348 346 344 344 345 347 347 346 349 348 347 343 342 346 346 344 343 342 343 341 344 343 344 345 346 350 354 355 355 353 351 352 352 355 354 352 350 349 349 353 358 361 363 365 367 370 371 370 369 370 369 368
363 360 363 363 364 364 362 359 359 358 363 367 365 366 364 362 354 353 354 353 352 351 358 357 357 358 352 353 355 354 354 351 347 347 345 343 344 346 346 346 345 346 350 347 346 345 341 345 342 345 342 343 340 344 344 341 345 349 350 352 353 354 353 354 353 356 352 354 352 350 349 347 349 351 354 358 360 363 365 368 369 368 366 364 361
365 366 363 363 365 366 366 364 364 363 362 361 362 362 362 354 352 348 350 353 350 348 351 356 358 358 354 354 353 355 349 348 349 349 349 348 345 346 345 346 346 348 352 353 349 345 342 341 345 341 341 342 342 342 344 343 347 349 349 349 349 351 353 355 354 351 348 351 351 350 348 347 347 347 349 350 352 355 358 358 358 356 354 352 351
363 366 366 366 367 365 361 359 359 361 361 361 360 362 362 360 357 354 355 354 352 347 350 351 350 352 350 350 350 353 353 349 344 347 348 349 348 349 348 350 351 350 350 352 352 349 344 340 344 342 342 342 343 343 345 347 347 346 347 349 350 351 352 351 351 353 348 350 352 349 348 346 345 344 344 344 346 348 348 344 343 343 342 342 343
361 362 360 360 358 358 355 355 355 359 361 363 364 363 362 362 360 356 353 352 352 353 355 354 354 353 351 348 344 353 354 351 351 349 351 351 352 352 351 350 349 348 348 350 351 351 348 344 344 347 348 347 347 347 348 344 343 344 347 348 350 351 351 351 351 351 348 350 350 348 348 347 346 344 342 342 342 341 340 339 339 338 337 337 337
360 359 361 360 358 358 360 359 358 361 362 361 362 361 360 358 355 353 351 349 350 352 348 350 354 353 352 354 356 356 356 353 353 353 353 352 348 342 346 347 348 350 350 350 352 350 349 347 348 346 349 345 344 345 347 347 343 342 345 348 350 351 351 349 349 350 352 351 354 358 350 347 343 342 344 343 340 340 339 339 338 337 336 335 334
362 361 362 361 360 358 361 360 358 359 358 358 358 358 357 355 352 350 348 346 350 351 352 349 350 351 352 356 356 354 350 354 353 353 352 351 348 351 349 351 352 352 349 346 349 350 350 350 348 348 345 346 344 341 345 349 347 347 345 344 344 345 347 347 348 347 349 350 350 350 350 351 351 354 342 338 339 339 339 339 339 339 340 336 332
360 359 358 356 356 357 355 355 354 354 354 354 354 354 353 352 351 349 350 351 350 351 349 353 354 353 354 354 355 355 355 353 354 356 354 352 350 347 346 352 351 349 348 348 348 347 347 347 346 345 342 340 342 345 346 347 345 346 347 345 341 343 344 347 347 347 351 351 350 350 351 351 351 349 343 341 340 341 341 340 339 341 343 341 335
354 354 354 351 350 350 351 350 349 348 347 347 347 347 348 346 343 342 344 345 346 347 347 347 347 348 348 346 346 347 347 347 350 350 350 350 346 343 345 347 347 345 346 345 343 343 342 342 339 340 338 338 339 340 339 340 340 340 344 344 342 343 347 347 349 351 356 356 355 351 350 348 347 348 354 358 360 349 349 344 348 344 345 344 339
350 349 349 347 346 345 344 344 344 342 342 342 343 343 341 341 338 338 339 340 341 342 343 343 343 344 345 345 345 346 349 349 349 348 348 348 348 347 344 344 344 345 350 348 344 341 340 339 337 337 335 335 337 338 339 341 343 344 343 344 343 345 349 346 347 350 356 358 354 352 353 351 348 347 348 346 348 360 357 358 356 350 347 339 338
347 347 345 345 344 343 343 343 342 341 341 342 341 339 339 337 339 340 339 339 340 339 340 339 340 340 341 342 343 343 344 344 345 346 346 345 345 345 345 345 346 346 345 342 341 344 340 338 337 337 335 336 338 340 340 343 345 347 346 347 347 349 346 342 340 346 354 356 357 354 351 352 351 347 346 346 346 346 347 347 343 342 342 338 336
343 344 343 343 343 343 342 342 342 340 340 337 336 338 336 334 335 338 337 337 337 338 338 338 337 338 339 339 340 341 341 342 344 345 345 346 344 343 343 344 344 343 343 346 343 340 340 337 337 339 339 338 338 342 342 343 344 345 348 349 349 345 343 342 341 339 349 354 352 352 350 353 352 349 348 347 347 346 344 341 336 339 337 336 335
343 342 342 341 342 342 340 339 337 337 336 338 332 330 327 326 326 329 335 337 337 336 336 336 337 337 338 337 336 337 338 341 341 342 343 343 343 346 346 345 345 343 340 339 341 347 347 345 346 343 340 340 340 342 344 347 346 340 347 345 348 348 346 342 342 344 346 353 353 349 344 345 347 346 345 348 348 346 344 339 337 338 337 336 335
342 340 340 340 339 338 337 337 337 336 337 330 326 324 323 323 323 326 331 333 335 337 337 337 338 337 335 339 337 336 339 341 341 342 341 342 342 343 344 347 347 347 344 341 341 341 344 348 345 339 344 346 343 344 348 350 346 342 341 343 347 346 345 343 348 350 351 351 345 346 344 344 345 341 341 344 344 346 346 339 331 335 335 334 334
338 337 335 336 336 336 337 336 336 336 334 326 323 323 321 322 321 325 327 330 333 334 335 337 337 337 337 338 339 337 340 341 340 341 342 343 341 338 339 340 342 347 349 347 347 348 350 347 345 342 346 347 345 346 351 350 346 343 341 341 342 340 342 349 350 351 352 352 350 347 337 340 342 340 341 343 343 345 346 336 327 332 333 333 333
337 337 337 337 336 336 336 337 336 335 334 323 323 321 321 320 321 326 329 330 330 331 331 333 334 335 337 337 337 336 339 341 340 338 339 343 342 341 337 339 340 341 342 343 340 342 346 346 344 348 346 345 345 352 352 348 342 341 341 343 349 347 345 341 337 342 340 347 350 348 345 341 344 338 338 341 343 344 346 348 332 332 332 332 331
335 335 336 336 337 335 334 333 332 330 330 325 320 319 319 319 321 326 327 327 328 328 329 331 331 333 334 336 336 337 338 335 337 332 334 337 338 338 337 339 340 338 338 340 338 335 335 334 333 335 335 334 333 330 329 332 340 341 341 343 344 345 341 337 339 337 337 342 345 348 346 342 346 343 340 341 344 342 342 343 349 332 329 331 329
334 334 334 334 335 334 332 329 329 327 327 326 320 318 317 318 321 323 324 324 325 326 327 329 329 330 331 330 331 333 334 335 333 330 331 336 338 336 336 338 336 336 336 338 340 341 333 331 331 331 331 332 332 332 333 333 332 339 342 336 343 344 340 338 334 337 338 338 340 345 343 342 348 346 341 343 344 344 344 346 347 347 330 328 326
333 334 332 331 330 330 329 328 326 325 325 325 320 317 317 317 320 322 321 322 322 323 324 325 327 327 328 329 329 330 330 331 325 325 326 332 335 335 333 334 335 336 336 340 338 337 340 340 340 344 345 343 345 346 346 340 338 341 346 344 346 342 339 338 338 336 333 335 341 344 339 341 343 344 343 340 338 341 344 343 345 350 354 356 356
Wind_Speed
4 5 4 3 3 2 3 3 2 2 2 4 3 2 3 3 2 3 4 3 4 4 2 4 3 3 3 3 3 3 3 3 2 2 3 3 3 3 6 9 10 12 13 14 14 15 15 16 17 18 18 18 17 17 17 16 16 15 15 15 16 15 15 15 15 16 16 16 16 16 15 16 15 15 16 16 16 16 15 16 15 15 15 15 15
4 3 3 4 3 4 4 4 3 3 4 3 2 2 3 2 3 4 3 3 4 2 3 4 5 4 3 4 3 3 3 3 2 3 3 3 4 5 10 9 9 10 12 13 14 14 14 15 16 16 18 18 18 18 18 18 17 16 15 15 16 16 16 16 15 16 16 17 17 17 17 17 16 16 16 17 17 16 16 16 16 15 16 16 16
3 4 4 4 4 4 4 3 3 4 2 3 2 2 3 4 4 4 3 3 4 4 4 6 5 6 3 4 3 3 3 3 4 4 3 2 2 2 4 12 11 11 11 12 13 14 14 15 16 16 17 18 18 19 18 18 18 18 18 16 16 17 17 16 16 16 16 17 17 18 18 18 18 18 17 17 18 18 17 17 16 17 17 17 16
3 3 4 3 3 4 4 4 4 3 2 3 3 2 4 5 4 4 4 4 5 5 5 5 5 5 5 5 4 4 3 3 5 4 5 5 3 4 4 6 13 13 12 12 12 13 14 15 15 16 16 17 18 19 19 19 18 17 17 18 17 17 17 17 16 16 16 17 17 17 17 18 18 18 18 19 19 19 18 17 17 17 17 17 17
4 4 3 4 4 3 4 3 4 3 3 4 4 4 5 4 4 4 4 5 6 6 6 6 6 5 5 6 4 4 4 5 5 5 6 5 6 4 4 4 4 13 14 13 13 12 13 14 15 16 16 17 17 18 19 19 19 18 18 18 19 18 17 17 16 16 16 17 17 17 17 17 18 19 19 19 19 20 18 18 17 18 17 17 16
4 4 4 4 4 4 4 4 3 4 4 4 4 4 4 4 5 5 4 6 6 6 6 6 6 6 5 5 4 4 4 5 5 6 7 7 6 6 6 6 5 5 8 15 14 13 13 13 14 15 16 16 17 17 18 19 19 19 18 18 19 19 18 18 17 16 17 17 17 17 17 17 18 18 19 19 19 19 19 18 18 18 17 16 17
4 4 5 4 5 5 4 4 3 3 5 3 5 4 5 6 5 6 6 6 7 6 6 6 6 7 6 5 5 5 5 6 6 6 7 7 7 7 7 6 6 6 6 4 14 15 13 13 13 13 14 15 16 17 18 19 19 19 19 19 19 19 18 18 18 17 17 17 17 17 17 17 17 17 18 18 18 18 18 18 18 17 17 17 17
4 4 5 4 4 4 4 3 4 5 5 4 4 6 6 6 6 6 6 7 7 8 7 6 6 6 6 6 6 5 5 6 7 8 7 7 8 8 7 6 8 6 4 6 6 6 14 13 12 13 13 14 14 15 17 18 19 20 19 19 19 19 18 18 18 18 18 17 18 18 17 17 17 17 17 18 18 18 17 18 18 18 18 18 18
5 4 5 5 5 4 5 5 4 5 5 6 6 6 7 7 5 4 5 6 7 9 8 7 7 6 6 5 5 5 6 6 7 7 7 8 7 7 7 7 5 3 8 7 7 7 14 14 12 12 13 13 14 14 15 17 18 19 20 20 20 20 19 19 19 19 18 18 18 18 17 17 17 17 17 18 18 18 18 18 18 19 18 18 18
5 5 5 5 5 4 5 5 5 6 6 7 7 7 7 7 7 5 5 5 6 7 8 7 6 6 6 6 6 6 6 7 7 7 8 6 5 4 5 4 5 5 4 6 6 5 5 8 12 12 12 12 13 14 14 15 16 18 19 20 20 20 20 20 20 20 20 19 18 18 18 18 18 18 18 18 18 17 17 18 17 17 17 18 17
5 5 6 6 6 6 6 6 6 6 7 7 7 6 7 7 7 6 4 5 5 6 7 6 7 7 7 7 7 7 7 7 7 7 7 6 5 4 5 4 4 3 3 4 4 4 6 6 6 5 7 14 13 14 14 15 15 16 18 20 20 20 21 21 20 20 20 19 19 18 18 17 18 18 18 19 18 18 18 17 17 18 17 17 17
6 6 6 6 7 6 6 6 6 6 6 7 6 5 5 6 7 8 6 6 6 6 5 5 6 7 7 7 8 8 8 8 8 9 6 5 4 3 5 5 4 2 3 4 2 4 5 4 2 2 3 7 14 13 14 14 15 16 17 19 19 19 20 20 21 21 20 20 19 18 18 18 18 18 18 17 17 17 17 18 18 17 17 16 16
6 6 6 6 7 7 7 7 6 6 6 6 6 7 6 6 5 4 7 7 7 5 6 5 6 7 7 8 7 7 8 7 8 7 6 4 4 4 4 4 3 4 3 4 3 4 4 4 5 4 4 4 7 12 13 13 14 15 16 17 19 20 21 21 20 21 20 22 20 19 18 18 18 18 18 17 17 17 17 17 18 18 17 16 16
6 7 7 7 7 7 7 7 6 6 6 6 6 5 5 6 6 7 6 7 6 5 5 5 6 7 7 6 7 6 3 6 7 7 4 4 5 5 2 4 6 5 4 3 4 5 6 4 4 5 5 4 4 3 6 9 11 15 15 16 17 19 20 20 21 22 22 22 20 19 19 19 18 18 18 17 17 17 17 17 18 18 17 17 16
8 7 7 8 8 8 7 7 6 6 6 6 6 6 5 7 8 7 7 6 5 5 5 5 7 6 6 6 6 6 3 4 2 2 4 6 6 6 4 5 5 5 5 5 5 4 5 4 4 3 2 4 4 4 5 7 8 11 16 17 17 18 19 20 20 22 21 21 20 19 19 19 19 19 19 18 18 17 17 17 17 17 16 16 16
9 9 8 8 8 7 7 7 7 6 6 7 7 8 9 7 8 8 7 7 6 6 4 4 6 6 6 4 6 6 7 2 3 3 6 8 5 4 3 5 5 6 5 6 6 3 3 6 4 2 3 5 4 6 7 8 9 10 13 16 17 17 18 19 20 20 20 20 20 19 19 19 19 19 19 19 19 18 18 18 17 17 17 16 16
9 10 9 8 7 7 7 8 8 7 7 8 7 8 9 7 6 6 6 7 8 6 5 5 7 4 6 5 5 5 4 6 7 7 5 4 3 5 4 5 7 5 5 6 5 5 6 4 4 3 4 5 5 5 9 7 7 6 8 13 15 16 17 18 19 19 19 19 19 19 19 19 19 19 19 19 19 18 18 18 18 17 17 17 16
8 9 9 9 8 8 8 8 8 8 7 8 8 7 7 8 8 7 8 8 7 7 7 6 6 5 6 6 5 6 6 7 8 6 3 7 6 5 6 7 6 6 6 6 6 6 5 6 5 6 6 7 6 5 6 7 6 7 7 7 14 16 16 17 18 18 19 19 19 19 19 19 19 19 19 19 19 19 18 18 18 18 17 17 16
7 7 8 8 8 7 7 8 8 8 8 7 8 9 8 9 7 6 6 6 5 6 7 8 6 5 5 7 7 7 7 7 7 8 8 5 6 7 7 7 7 8 7 6 6 6 5 5 7 8 7 5 5 6 6 6 6 7 7 8 9 13 15 16 16 17 18 18 18 19 19 19 19 19 19 19 19 19 19 19 19 18 18 17 17
7 6 7 7 7 7 7 7 8 8 8 8 8 8 8 7 6 6 5 6 6 7 8 7 7 6 6 7 7 7 7 7 8 8 9 9 8 6 8 8 6 6 7 8 8 7 8 7 8 7 6 6 5 6 6 7 7 6 7 11 12 11 13 14 16 16 17 18 18 18 19 19 19 19 19 19 19 19 19 19 19 18 18 18 18
6 6 7 7 7 7 7 7 7 8 8 8 9 9 9 8 7 6 7 8 8 8 8 8 8 7 6 7 6 6 6 6 6 7 8 8 9 9 8 7 8 7 7 5 6 7 7 7 6 7 8 8 7 7 7 7 7 6 7 9 11 12 12 13 15 16 17 17 18 18 19 19 19 19 19 20 20 20 20 20 19 19 19 19 19
7 8 8 8 8 8 8 9 9 9 8 9 9 9 9 9 9 9 9 9 8 8 8 8 8 7 8 6 5 5 6 6 6 6 7 8 8 8 8 9 9 6 5 7 7 6 6 7 7 8 8 6 5 6 7 7 7 8 8 3 1 6 9 12 13 14 16 17 17 18 18 18 19 19 19 20 20 20 20 20 20 20 19 19 19
8 8 9 9 9 9 9 9 9 8 8 9 9 10 9 9 10 10 10 10 8 9 9 9 9 8 9 7 7 7 7 7 6 5 6 7 7 8 8 8 9 9 8 7 6 7 7 7 7 8 7 7 7 6 6 6 7 9 6 8 10 10 10 10 12 13 15 16 17 17 17 18 18 18 19 19 20 20 20 20 20 20 20 20 20
7 8 8 9 8 8 10 10 9 9 9 8 9 9 8 9 8 7 8 9 9 9 9 9 11 10 10 9 9 8 8 7 7 6 6 6 6 7 8 8 8 8 7 7 6 8 7 7 7 7 6 7 6 6 6 7 8 11 10 10 9 9 10 10 11 13 14 15 16 17 17 17 17 18 18 18 19 19 20 20 20 20 20 20 20
9 10 9 10 8 8 9 9 9 9 9 8 8 9 9 9 9 9 9 9 8 10 9 10 9 10 10 10 9 9 8 8 8 7 6 6 7 8 7 8 9 8 7 7 7 6 6 7 7 7 6 6 7 6 7 8 8 4 9 8 7 6 8 9 9 10 12 14 15 16 17 17 17 17 18 18 19 19 19 20 20 20 20 20 20
9 9 9 9 8 8 9 9 9 9 9 9 10 10 9 10 10 10 11 10 10 11 11 10 9 13 13 10 10 9 9 9 8 8 8 7 8 9 8 8 8 9 8 8 7 8 5 6 6 7 7 7 6 7 7 8 9 4 4 6 9 11 9 7 6 7 9 11 13 15 15 16 17 17 18 18 19 19 19 20 20 20 20 20 20
9 8 7 8 9 8 8 9 9 9 9 9 10 10 10 10 9 10 9 10 11 10 10 12 10 15 15 11 10 11 10 9 9 9 8 9 9 9 9 9 9 9 9 9 9 10 8 7 7 7 6 7 7 6 7 8 9 13 13 8 9 3 3 5 5 4 5 7 9 12 14 16 16 17 18 17 18 19 20 19 20 20 20 20 20
8 8 8 8 9 9 9 10 10 10 10 10 10 10 10 10 10 10 11 10 11 13 11 12 13 14 13 12 11 12 11 11 10 10 10 10 9 9 9 9 9 10 9 9 9 9 10 9 7 7 8 7 6 7 8 10 10 8 7 8 8 5 5 6 5 4 4 6 7 9 11 14 16 16 17 17 18 19 19 20 21 23 23 22 21
8 8 8 8 8 9 9 10 9 9 10 10 10 11 10 10 10 11 12 12 11 12 11 11 12 13 13 15 13 12 12 11 12 13 12 11 11 11 10 10 9 9 8 9 9 9 9 10 9 6 7 8 8 9 9 8 8 6 8 7 8 8 7 8 7 6 5 6 7 8 9 9 11 14 16 17 18 18 19 20 21 22 23 23 23
8 7 7 8 8 8 8 9 9 10 9 10 11 12 11 10 12 11 11 11 11 11 11 12 13 12 13 13 13 13 13 13 13 13 11 13 13 12 10 10 8 10 9 10 10 9 10 10 9 8 6 8 9 9 9 9 7 7 11 10 9 9 7 7 7 6 7 8 8 8 8 7 8 9 12 14 16 16 17 18 19 21 21 21 22
8 8 8 9 9 8 7 8 8 9 10 10 11 10 10 10 11 11 11 11 10 11 11 12 11 9 10 14 16 14 13 14 14 13 12 14 13 11 11 9 10 9 10 10 11 9 10 11 9 10 9 10 9 10 10 10 10 10 10 10 10 10 2 6 7 9 10 10 9 8 8 7 8 9 10 12 13 14 15 15 17 18 18 19 20
8 8 8 9 9 9 9 9 9 10 10 10 7 11 9 10 11 11 11 12 11 11 12 12 11 12 12 12 16 13 12 12 15 11 13 16 13 13 12 11 10 10 10 10 12 12 10 11 11 10 12 11 11 10 10 10 10 10 10 10 10 8 7 9 11 14 13 11 10 9 7 7 7 7 8 9 11 12 13 14 14 15 17 18 18
6 7 8 9 9 8 9 9 10 9 8 7 7 7 8 10 9 9 10 14 13 12 10 10 11 16 14 11 9 9 9 10 17 15 13 15 14 13 12 11 11 10 10 11 12 12 10 10 10 10 11 11 11 10 12 11 11 10 10 9 10 10 10 9 9 11 12 13 11 9 8 7 7 7 7 8 9 10 11 12 13 14 15 16 16
7 8 8 8 7 5 5 8 11 10 8 7 8 8 9 2 6 7 9 11 13 16 12 11 11 9 12 11 11 11 10 12 16 16 13 13 14 12 12 12 11 11 10 11 11 11 13 10 12 11 11 11 12 10 11 11 11 9 10 10 9 10 9 9 10 8 15 13 11 11 9 9 8 8 8 7 8 9 11 11 11 12 13 14 14
6 6 7 7 6 3 5 6 6 7 9 9 8 8 4 5 8 11 11 10 13 15 14 12 10 10 12 11 11 10 10 13 11 13 13 14 14 15 14 12 12 11 10 10 10 12 15 13 12 13 11 10 11 11 11 11 10 10 11 11 11 9 9 9 9 10 9 13 12 11 11 10 9 9 10 10 9 8 9 10 10 11 11 12 13
6 3 3 4 1 2 3 5 6 6 7 8 8 7 6 6 7 10 10 11 12 15 13 10 12 10 11 12 12 11 11 12 12 14 12 11 11 11 12 11 11 11 11 11 12 12 14 14 12 13 12 11 11 12 11 10 10 11 11 11 11 11 11 10 11 11 9 14 14 13 11 11 11 11 11 11 10 10 10 10 10 10 10 11 11
3 4 4 3 4 5 5 6 7 7 7 7 7 7 7 7 7 8 10 11 12 12 9 9 10 10 12 11 14 12 10 11 11 11 10 12 8 7 8 8 9 10 12 12 12 12 13 14 13 11 11 11 10 11 10 11 11 11 11 11 11 11 11 11 10 9 10 10 13 13 12 13 14 14 13 12 13 12 11 11 11 11 11 11 11
3 2 2 4 4 5 6 7 7 7 8 9 9 8 8 6 5 8 10 12 13 10 9 12 9 12 13 13 11 11 11 11 11 10 9 8 2 11 14 13 12 11 11 14 12 13 14 13 13 13 11 11 11 11 11 11 11 11 11 11 11 11 11 11 11 10 10 9 9 11 12 12 14 15 14 13 13 13 13 12 12 12 12 12 12
1 1 2 3 4 5 6 7 8 7 6 7 8 8 8 8 7 6 8 12 14 10 11 11 14 13 15 12 12 12 14 13 13 13 12 13 12 13 13 13 12 13 12 14 13 13 12 12 12 12 12 11 11 12 11 10 11 11 11 11 11 10 10 11 11 10 9 10 11 11 11 11 7 6 13 16 14 15 14 13 13 13 13 13 13
3 3 3 4 4 5 6 7 8 8 8 8 7 7 8 8 8 9 10 10 12 11 13 12 12 13 13 13 13 12 12 13 13 11 11 10 9 10 15 11 11 13 13 13 13 13 12 13 13 11 12 12 10 10 10 10 10 11 11 11 11 10 10 10 10 9 8 9 10 9 9 11 12 13 11 13 15 15 15 14 15 13 15 14 14
3 3 3 4 4 4 4 5 6 6 6 7 6 6 6 7 8 10 11 12 12 13 13 14 14 14 15 16 16 16 16 15 16 15 15 13 13 15 13 13 14 14 13 13 13 13 13 14 14 12 13 12 11 11 11 11 12 12 10 10 11 10 10 9 9 9 9 9 9 10 9 10 11 10 9 9 10 15 15 17 14 17 18 16 16
3 2 3 4 4 5 5 6 6 6 6 6 8 7 7 7 10 10 10 11 12 12 12 13 13 13 13 14 14 15 14 15 15 14 13 13 14 15 14 13 13 12 11 11 11 12 13 13 14 13 13 13 13 13 12 12 12 11 11 10 11 9 6 6 8 8 8 8 8 9 9 9 9 10 10 10 9 10 9 10 10 11 15 18 16
3 3 3 4 4 5 6 6 7 6 6 6 8 8 8 11 11 11 11 11 12 12 12 13 13 14 14 14 14 15 15 16 16 16 16 17 17 16 17 16 15 14 14 14 13 10 11 12 11 12 13 13 14 12 11 10 9 9 9 9 9 6 5 6 8 6 8 9 8 8 9 8 7 9 10 10 10 11 10 11 14 14 12 16 14
3 3 4 4 5 5 5 6 7 8 8 6 7 7 9 10 10 10 11 11 11 12 12 13 14 13 13 13 13 11 12 13 13 13 13 14 16 17 17 17 17 18 17 15 15 13 13 13 13 13 12 13 12 11 10 9 9 9 9 8 8 9 8 8 8 9 3 6 9 7 7 6 7 8 9 9 10 10 12 0 9 12 12 12 13
4 4 5 5 6 6 7 8 9 9 10 14 13 15 13 12 13 12 10 13 13 14 14 14 14 13 13 13 13 11 11 14 13 13 12 13 13 14 15 17 18 18 17 17 17 15 14 13 12 12 12 11 12 10 10 4 5 10 9 8 8 8 8 9 9 8 7 6 6 8 9 8 8 9 10 9 9 10 11 10 13 12 12 12 11
5 5 6 7 7 8 8 8 8 8 6 12 12 11 12 13 13 12 11 13 13 14 14 13 12 13 13 12 12 12 12 12 12 13 13 12 12 11 11 11 12 14 16 17 18 18 17 14 13 13 12 9 10 10 8 2 4 6 8 10 10 9 9 9 9 8 6 7 9 8 8 8 8 9 10 9 9 10 9 7 12 13 12 11 11
6 6 7 8 7 7 7 7 7 8 6 10 9 10 8 9 13 13 10 11 11 12 13 13 13 13 13 12 12 13 12 12 10 11 11 10 10 10 11 11 10 10 9 9 9 9 9 12 13 14 14 12 12 11 7 2 5 8 7 10 9 8 9 8 8 8 8 9 11 9 11 10 8 9 9 9 9 10 9 6 13 12 12 12 13
6 6 6 6 7 7 7 7 8 9 3 9 8 9 9 10 15 10 10 11 12 12 13 13 14 13 12 12 12 12 12 11 12 11 10 8 8 10 11 10 10 9 10 9 9 11 11 9 12 12 10 10 6 3 2 3 3 7 10 11 7 6 7 7 10 9 10 7 9 9 9 9 8 10 10 9 9 9 8 8 12 13 14 14 14
6 6 6 6 7 7 8 8 9 7 9 7 8 6 7 9 12 10 11 10 10 11 12 12 12 12 12 13 12 12 12 12 11 5 4 8 10 11 10 10 9 8 9 10 9 11 12 13 13 11 10 10 10 8 8 10 9 8 10 10 8 7 8 9 8 9 10 8 7 8 9 9 8 9 10 9 8 9 9 10 8 11 15 15 14
6 6 6 6 6 6 6 8 7 8 9 6 7 7 8 9 13 11 10 10 11 11 11 12 11 11 13 16 16 13 13 12 7 7 6 9 9 10 11 9 10 10 10 9 8 7 14 13 10 10 11 12 11 11 11 11 12 10 9 10 9 7 8 9 10 9 9 9 8 7 8 9 8 9 9 9 9 9 10 9 10 7 10 12 14
5 5 6 5 6 6 7 8 9 9 8 8 6 8 8 7 11 11 10 10 11 11 11 12 12 11 11 12 15 13 11 12 12 11 10 12 10 10 11 9 9 9 9 8 7 8 4 5 7 8 7 9 9 10 11 13 13 12 11 11 8 9 9 9 8 8 11 9 8 9 10 9 9 8 8 7 9 9 9 9 8 8 7 7 7
Wind_Direction
191 196 184 197 189 200 219 199 208 224 213 218 222 231 256 261 257 265 255 279 276 269 290 277 290 253 250 274 263 265 248 271 276 224 201 193 230 284 211 208 211 211 216 218 220 220 220 219 218 220 223 226 227 228 229 227 227 227 227 224 219 217 216 215 216 213 216 219 222 224 225 226 227 233 239 237 234 234 236 237 238 240 241 239 240
187 210 187 185 198 204 202 215 200 208 227 229 241 250 261 275 267 268 310 296 293 305 287 302 298 312 292 296 299 286 271 242 259 249 252 215 185 234 202 209 217 226 217 218 219 222 224 225 223 222 221 221 224 227 229 229 231 229 228 225 222 219 216 216 216 215 216 217 218 220 224 227 223 226 235 239 238 234 232 235 235 235 238 239 239
205 191 203 193 198 209 219 210 223 217 230 249 235 276 303 298 305 319 304 307 305 310 294 300 296 288 315 288 292 298 301 303 275 259 272 284 265 279 210 186 213 228 233 222 221 219 221 225 228 227 225 223 223 225 227 228 229 231 231 227 223 221 218 216 216 215 215 218 218 219 221 224 224 225 227 232 236 235 232 232 233 235 238 239 238
249 220 211 207 224 207 207 210 218 231 222 270 268 299 291 293 307 295 306 292 284 284 293 283 287 293 300 292 293 293 305 310 294 333 304 284 273 247 252 206 196 215 225 233 225 222 221 221 222 226 227 228 228 226 225 226 228 228 229 230 225 222 220 218 217 216 216 217 219 221 222 223 225 225 225 227 230 233 231 229 232 233 237 238 239
212 234 239 236 234 238 235 233 241 251 249 276 302 283 271 277 280 288 279 287 280 280 281 280 278 279 280 278 288 288 304 302 315 298 300 312 288 267 263 267 233 192 211 225 228 229 224 222 221 221 224 227 228 229 228 225 224 226 228 228 228 224 222 221 220 218 217 217 218 219 222 224 225 225 224 227 230 231 231 230 231 234 235 236 238
240 217 246 238 228 232 252 252 262 254 274 274 278 276 285 292 290 290 288 278 288 290 295 296 297 296 290 302 300 303 299 299 303 313 310 299 316 314 288 272 248 228 208 202 218 223 230 229 224 223 221 222 223 226 227 227 225 224 225 225 226 226 224 225 224 221 219 219 219 220 220 222 225 229 231 231 232 232 231 230 232 234 234 234 238
221 245 226 242 247 236 234 244 257 296 277 267 269 285 288 284 288 289 295 295 291 303 290 288 300 294 291 295 299 306 310 303 306 298 301 314 311 299 296 289 271 280 263 246 192 211 220 226 231 229 223 222 221 222 223 226 226 225 224 223 223 224 221 224 227 225 221 221 221 221 222 222 224 228 232 234 234 234 231 229 230 229 232 235 237
217 222 253 244 252 261 247 269 286 271 272 278 287 282 279 278 283 288 291 300 312 294 293 288 288 295 297 298 293 300 307 312 310 309 312 315 313 312 297 274 272 260 314 290 300 216 197 217 231 231 230 226 222 220 221 221 223 224 225 224 221 220 221 222 225 226 223 220 222 223 223 224 225 227 231 234 236 236 235 231 229 230 231 233 235
213 224 247 245 251 257 261 255 273 290 293 290 282 278 277 280 277 272 287 291 294 297 291 288 275 272 286 290 302 315 301 307 305 309 314 299 293 294 297 305 294 292 246 241 228 248 179 204 213 230 232 233 229 224 222 223 222 222 222 223 224 222 220 223 224 227 225 221 222 224 225 225 226 227 228 231 234 235 235 234 234 235 235 234 235
213 224 242 260 266 264 272 278 270 262 264 263 259 259 259 263 268 265 273 283 290 297 290 283 293 299 297 299 299 297 301 294 297 299 284 283 280 276 281 278 278 287 336 317 311 308 287 182 205 216 228 238 234 232 227 224 222 221 221 221 221 222 221 220 225 227 229 225 222 224 226 226 228 230 230 231 232 234 236 236 235 234 234 235 234
216 223 241 246 243 243 251 252 261 263 263 264 260 259 264 261 262 264 250 267 297 297 299 304 294 291 293 294 296 285 280 283 286 286 289 294 304 288 266 248 269 271 262 243 199 250 251 263 223 214 221 215 231 232 232 229 225 222 221 220 221 221 221 221 222 225 227 227 223 224 225 226 228 230 231 233 233 234 234 233 233 234 234 234 233
218 226 240 252 256 252 253 259 258 263 268 275 283 274 251 251 251 264 265 262 244 251 261 274 278 279 280 276 273 279 282 293 291 284 278 269 258 275 288 299 263 243 264 256 267 245 231 215 275 276 265 239 214 224 227 231 229 227 223 223 223 222 222 223 221 222 225 225 223 223 224 225 227 231 232 232 231 232 232 233 232 230 231 231 233
225 231 235 242 253 258 259 257 261 269 273 274 286 300 306 290 276 252 267 265 273 278 283 290 299 290 274 269 270 269 269 266 281 281 273 277 270 264 271 261 267 269 252 259 264 260 274 237 215 197 229 256 214 214 223 227 231 231 229 226 225 227 228 228 226 224 225 230 227 224 224 224 225 228 231 231 230 229 229 229 230 232 231 231 231
227 233 240 247 250 252 252 258 264 267 272 279 285 282 270 260 266 257 235 260 278 287 289 292 266 276 296 299 291 274 259 281 272 266 262 251 278 281 245 262 268 277 274 276 269 269 268 262 219 223 221 221 260 263 221 229 233 227 231 229 228 228 228 228 228 231 231 233 231 227 225 223 223 225 228 229 229 228 227 227 229 230 230 229 229
234 231 240 242 248 252 256 257 257 265 262 265 271 264 269 275 255 256 275 263 258 265 274 263 283 291 298 286 286 305 277 259 294 276 273 288 278 271 256 261 283 296 299 282 263 250 264 295 308 287 263 216 206 243 254 251 240 221 216 225 228 229 229 228 228 231 232 233 233 230 226 225 224 224 225 226 227 226 227 228 227 227 226 224 225
233 237 239 243 244 247 256 266 263 252 269 272 277 292 273 241 253 244 249 271 265 277 274 263 275 300 287 306 306 294 294 246 268 278 289 277 274 276 275 293 301 287 282 272 265 269 274 253 236 227 236 260 250 247 231 232 228 221 210 218 223 226 228 230 230 229 230 231 232 231 228 226 225 224 224 225 225 224 225 226 227 226 225 225 224
234 234 239 243 241 241 253 263 267 264 261 265 256 246 259 267 251 259 251 257 270 265 255 253 263 252 280 287 284 271 293 322 327 296 294 289 265 276 278 271 270 284 278 276 303 294 275 284 274 255 261 255 231 230 255 249 238 235 222 215 221 225 227 229 230 231 231 231 230 230 228 227 227 226 225 224 223 223 223 223 224 225 224 224 224
231 235 237 242 236 234 243 254 257 247 241 264 276 274 258 252 262 244 244 235 251 263 265 240 245 261 251 260 275 296 305 308 296 301 277 270 271 265 271 263 269 269 278 291 278 282 289 279 261 251 242 237 242 250 251 249 236 230 234 234 210 223 225 226 228 231 232 233 232 230 229 228 227 227 226 224 223 222 221 221 222 223 224 224 223
234 232 237 236 238 239 237 240 253 258 258 251 254 258 264 267 262 242 238 258 249 252 258 271 270 245 242 253 255 255 270 286 298 304 295 302 299 296 282 273 276 281 279 271 273 272 279 287 286 278 269 264 259 259 262 260 253 251 229 231 223 216 222 225 225 227 231 232 233 232 230 229 228 227 226 225 224 222 221 220 220 221 221 222 223
241 237 235 234 234 239 236 244 252 258 259 257 257 261 271 276 262 252 260 254 243 246 256 259 257 249 249 259 248 253 261 273 273 287 295 298 294 285 285 281 276 275 281 283 288 298 292 288 285 288 291 284 267 259 259 263 263 262 254 216 223 217 219 224 226 225 229 231 233 233 232 230 228 227 226 225 224 223 221 220 220 219 220 220 222
228 226 225 232 230 241 242 241 248 253 253 256 255 257 262 263 257 239 235 239 241 243 243 249 252 257 250 244 259 272 279 270 267 271 282 291 295 297 292 295 287 280 275 285 274 258 273 284 294 294 278 260 251 248 256 265 265 254 267 251 212 217 222 225 227 227 230 231 233 233 233 231 229 227 226 225 224 223 222 221 220 219 219 220 221
223 215 222 229 233 233 238 239 242 245 250 254 258 260 258 254 247 245 243 240 240 242 243 243 247 255 259 253 250 267 275 281 273 266 256 258 279 288 296 299 292 290 299 279 284 293 281 279 282 278 278 283 293 282 267 263 260 253 235 91 316 234 231 232 230 227 229 233 233 233 234 233 231 228 227 225 224 223 222 221 220 219 219 219 220
238 228 223 219 224 230 239 242 244 242 240 248 249 250 249 243 242 237 239 245 244 246 245 245 247 246 247 247 249 248 249 259 272 285 295 296 294 292 291 290 301 301 286 289 286 278 281 283 281 289 301 296 279 277 271 268 271 269 318 311 286 273 254 242 237 233 228 229 231 234 234 234 232 230 228 227 226 225 223 222 220 219 219 218 219
238 234 233 229 222 219 225 242 247 247 246 242 248 249 249 253 254 251 241 227 234 246 248 252 255 243 242 247 244 249 259 259 259 262 263 266 268 282 292 298 289 289 299 288 273 274 276 279 281 275 279 288 289 291 295 275 261 252 253 239 238 249 252 245 235 235 231 229 231 232 234 234 233 232 230 229 228 227 226 224 222 221 219 218 218
246 247 235 230 234 218 229 233 241 236 243 255 253 248 253 258 258 251 249 246 234 229 235 237 251 270 251 234 242 246 252 262 270 277 277 279 276 274 279 294 290 289 292 301 292 283 280 285 293 290 280 278 291 293 290 288 280 224 203 261 234 249 255 250 245 243 241 237 233 234 233 235 234 232 231 230 229 228 227 226 224 222 220 218 218
252 248 252 250 240 235 228 237 241 244 237 234 243 248 246 245 245 246 245 240 236 230 231 231 228 250 257 254 254 251 254 258 262 266 269 273 275 274 272 266 278 288 296 293 296 292 278 272 273 285 284 278 290 291 280 287 289 228 147 291 293 260 244 244 247 248 247 246 243 238 234 235 236 235 233 231 230 228 227 226 226 224 222 220 220
257 261 259 253 258 252 241 248 248 238 237 235 240 241 238 242 246 246 242 240 239 236 235 227 229 242 245 249 256 259 263 270 267 261 265 268 273 279 286 288 285 286 289 292 293 281 293 288 285 280 288 294 278 281 288 281 293 306 290 273 274 142 161 224 247 252 260 261 257 251 245 239 236 237 236 232 229 230 228 226 224 224 223 223 222
262 264 257 248 251 252 247 247 253 252 242 241 245 248 240 232 234 235 236 234 235 234 234 243 242 246 251 251 252 253 252 258 268 271 265 266 262 266 271 266 275 282 285 286 289 291 294 293 293 279 277 281 293 283 274 268 264 251 202 266 276 274 261 234 222 238 260 267 266 261 256 251 247 242 238 237 235 232 230 227 227 229 230 227 223
254 246 247 243 250 251 251 257 254 247 249 247 247 244 242 238 234 232 235 235 234 237 238 239 243 249 248 244 248 249 248 243 252 266 268 268 273 270 265 272 277 274 273 277 272 284 291 292 293 292 294 290 284 283 281 279 275 269 276 279 269 266 234 186 206 224 240 258 260 257 257 255 254 252 248 242 238 234 231 230 230 230 230 232 228
245 253 256 249 236 229 242 248 253 257 254 253 248 242 239 239 239 240 241 244 242 236 236 241 242 243 245 255 251 250 248 245 241 253 267 267 252 258 258 262 267 268 268 268 272 276 281 281 285 291 286 285 285 286 288 289 291 287 275 275 277 272 268 197 217 224 234 241 248 251 248 245 241 246 252 249 244 241 237 233 231 231 229 228 230
240 241 246 250 237 226 223 233 235 235 244 249 250 254 251 248 248 251 254 253 251 253 250 241 245 245 258 256 256 254 263 261 257 249 240 252 258 255 262 260 265 266 266 262 269 261 270 280 282 289 293 283 279 284 286 288 296 297 283 277 275 278 257 235 228 232 229 227 233 238 246 239 245 246 246 249 247 243 240 236 234 232 230 229 227
237 234 242 248 248 237 227 231 241 243 244 249 260 259 253 254 258 259 259 252 241 246 248 258 254 242 226 238 255 257 260 278 274 256 274 270 260 261 262 262 257 251 256 256 259 267 261 275 284 285 280 279 279 279 279 280 272 246 263 262 265 283 254 262 234 230 224 214 217 228 234 242 249 254 253 251 251 247 241 237 235 233 232 231 229
253 251 249 246 245 240 242 250 256 255 245 240 235 245 253 252 264 288 302 291 282 258 249 244 247 263 259 248 238 249 258 251 260 261 251 254 260 259 258 258 259 256 249 248 256 263 262 265 274 279 282 284 277 279 285 284 282 280 275 268 263 262 266 265 262 223 205 205 210 211 225 237 243 252 255 251 250 253 248 241 236 234 234 234 232
256 256 253 256 253 270 304 308 306 300 289 263 253 247 254 331 11 287 269 273 272 275 262 260 260 251 261 251 236 234 232 236 256 263 257 262 264 258 259 260 257 258 251 249 253 259 268 267 272 271 274 274 275 267 271 278 281 280 270 266 263 259 261 267 264 248 188 202 200 201 212 224 233 242 249 250 244 245 248 247 239 235 235 235 234
243 246 251 247 253 209 230 233 231 237 257 268 265 266 253 138 229 257 266 272 278 276 274 264 260 261 260 259 253 244 247 256 265 261 256 260 261 259 258 258 261 259 252 247 251 259 267 267 266 273 268 267 273 276 272 274 283 282 276 268 264 259 257 252 255 260 197 195 196 200 202 211 224 230 238 244 248 245 243 245 246 245 239 236 235
286 296 314 302 336 270 248 262 276 282 273 270 273 273 263 233 218 237 249 254 255 260 265 277 278 274 270 265 265 258 257 256 245 255 256 253 254 255 258 258 253 251 254 249 243 253 266 266 262 268 271 274 272 272 271 267 267 266 264 265 260 262 261 253 250 256 229 192 198 199 199 207 215 226 232 238 239 241 242 241 243 242 242 241 240
17 348 311 332 285 269 269 264 260 260 270 277 275 271 270 279 301 301 289 284 285 282 294 289 282 277 271 272 271 269 265 262 261 252 249 253 252 257 263 259 258 261 263 255 251 253 258 260 261 256 259 263 266 270 270 271 269 268 262 257 260 259 258 259 261 257 268 185 193 199 203 210 217 221 226 229 233 237 237 237 238 240 240 240 239
153 202 228 263 279 290 292 296 299 292 285 283 284 291 303 321 302 287 297 294 284 290 302 288 284 282 278 270 267 269 268 267 263 259 258 255 304 283 264 259 257 255 259 259 251 252 254 254 253 262 254 261 269 265 264 261 266 268 266 263 260 256 255 257 253 248 244 243 237 217 212 225 225 223 219 221 227 230 236 235 232 232 235 238 238
82 5 324 302 296 309 309 302 297 307 315 303 296 298 297 288 286 277 261 270 273 276 259 250 260 256 264 260 259 258 259 251 248 246 242 242 239 239 255 246 252 253 245 250 252 249 247 247 249 253 262 261 262 267 261 258 260 261 264 268 265 261 253 250 253 255 251 247 244 251 265 277 266 224 208 216 215 222 225 228 230 228 228 228 229
37 24 350 345 326 306 301 300 298 299 298 297 300 297 289 290 295 290 289 278 280 271 273 272 273 272 270 266 260 260 259 262 258 249 253 251 254 254 250 249 244 248 252 252 250 250 248 254 256 258 261 268 260 255 258 260 259 254 251 259 266 267 262 258 255 255 260 260 259 247 215 221 241 247 231 211 214 215 217 221 225 228 225 224 222
323 357 348 347 338 333 326 315 311 306 304 298 298 299 311 323 319 308 299 294 289 289 286 281 277 273 269 268 268 264 268 268 265 267 269 274 267 264 261 257 258 258 257 256 253 252 253 256 261 264 267 264 262 259 256 253 253 258 258 256 258 260 263 264 261 257 251 250 250 254 254 255 252 247 228 222 213 208 216 219 223 215 223 223 221
40 13 343 339 333 326 321 312 306 303 289 286 288 323 7 337 321 308 300 294 292 287 286 283 280 276 275 274 275 279 280 282 283 280 275 267 261 262 267 267 266 263 257 256 257 253 252 256 259 262 265 262 261 258 257 256 260 263 260 255 256 261 279 292 293 274 258 247 248 249 253 250 254 257 257 251 248 208 235 207 221 227 205 215 216
5 346 334 323 321 318 305 299 300 295 293 296 350 42 3 355 329 312 303 296 292 288 282 280 278 276 274 274 273 273 273 268 262 257 256 256 255 253 253 257 262 265 270 267 263 265 265 265 266 265 263 265 263 265 263 264 264 262 260 259 260 254 259 263 265 254 246 255 240 253 256 260 260 264 260 257 249 249 242 244 211 209 180 194 203
342 331 323 317 309 305 306 304 304 300 299 319 66 26 18 0 343 318 300 292 288 284 279 276 276 276 276 275 273 272 271 269 273 273 266 252 245 247 251 252 251 251 253 260 267 265 262 265 267 263 269 266 269 264 264 261 256 255 256 259 256 261 260 253 251 257 236 258 257 251 255 252 254 258 262 255 254 259 262 31 143 154 161 175 191
332 328 323 319 319 319 312 310 305 307 297 41 46 39 30 13 358 336 302 295 288 280 278 275 271 273 272 274 274 273 272 272 266 265 267 270 263 249 240 243 247 248 248 248 249 257 269 267 266 271 262 268 272 273 271 293 347 294 270 256 257 254 252 254 257 265 256 231 249 260 266 264 256 249 250 256 260 256 253 173 166 163 181 183 195
339 332 330 325 320 320 322 317 315 306 354 55 48 36 23 0 349 328 304 297 289 289 290 287 286 287 284 284 281 278 273 270 269 269 271 274 276 275 267 255 250 244 237 237 243 246 249 259 262 263 266 261 268 275 285 294 248 242 264 268 263 256 251 256 262 266 281 288 259 263 264 259 258 263 262 262 259 260 255 243 176 187 187 196 206
336 330 329 330 330 323 317 316 314 321 68 65 59 30 19 344 336 311 285 283 288 291 294 292 292 289 289 284 279 277 277 278 274 281 285 283 281 280 281 284 277 271 257 242 244 251 248 247 256 258 261 264 263 257 249 235 247 249 250 265 278 297 301 294 273 251 252 242 251 250 260 265 263 259 262 260 259 258 261 198 167 188 198 206 217
337 330 332 325 326 326 330 339 334 331 61 89 63 39 2 355 328 310 298 296 291 288 287 287 288 289 286 283 281 278 277 276 276 286 285 284 288 281 278 276 277 277 276 257 216 230 239 247 251 255 267 276 302 307 240 194 247 265 261 253 233 234 254 265 262 261 257 247 238 241 255 263 260 268 270 268 268 272 267 270 167 188 197 209 212
334 337 335 333 337 340 348 344 334 336 323 50 61 30 351 352 335 317 310 301 296 292 289 289 289 287 286 286 288 288 282 276 285 299 251 277 277 279 278 277 277 278 276 271 222 215 235 236 251 261 262 268 268 254 241 229 211 239 262 256 248 245 253 256 258 262 259 253 244 240 251 262 260 261 264 259 267 268 271 268 265 190 200 206 210
345 346 342 341 351 347 346 338 343 330 324 24 60 6 356 354 336 326 317 308 302 298 294 291 289 286 286 285 286 288 288 289 318 6 312 277 266 266 267 268 279 280 276 279 278 240 206 223 233 251 258 260 265 259 246 239 230 220 242 249 251 248 247 252 260 262 266 263 254 243 245 249 259 262 266 268 266 259 254 257 257 251 186 203 207
3 2 346 357 346 349 0 355 349 348 332 338 39 9 0 350 340 328 316 306 300 295 296 294 292 290 288 284 280 281 284 291 316 325 328 311 285 278 273 275 276 277 282 294 305 304 334 298 259 244 240 244 252 260 256 242 233 230 237 248 256 255 254 257 261 274 270 257 256 253 252 255 254 255 263 268 264 263 260 254 256 255 252 241 212